Location: Carabito
(9.8355°N, 67.9249°W)
Time: 13:08:50
(UTC+00:00)

Cosmos 2360 Rocket - Pass Details

Date: 23 May 2024
Orbit: 832 x 846 km, 71.0° (Epoch: 25 June)

Event Time Altitude Azimuth Distance (km) Brightness Sun altitude
Rises 08:57:32 0° 321° (NW) 3,393 5.2 -17.2°
Reaches altitude 10° 09:00:28 10° 307° (NW) 2,458 4.3 -16.6°
Enters shadow 09:04:27 22° 262° (W) 1,740 3.3 -15.7°
